Weather History for Fort Polk, LA

Change the Weather History Date:

Wednesday, June 26, 2013

  Actual Average (KPOE) Record (KPOE)
Temperature  
Mean Temperature 83 °F -  
Max Temperature 93 °F 87 °F 102 °F (2012)
Min Temperature 73 °F 70 °F 68 °F (2001)
Cooling Degree Days 18    
Growing Degree Days 33 (Base 50)    
Moisture  
Dew Point 74 °F    
Average Humidity 77    
Maximum Humidity 100    
Minimum Humidity 47    
Precipitation  
Precipitation 0.01 in - - ()
Sea Level Pressure  
Sea Level Pressure 29.98 in    
Wind  
Wind Speed 2 mph (SW)    
Max Wind Speed 7 mph    
Max Gust Speed -    
Visibility 9 miles    
Events      
Averages and records for this station are not official NWS values.
T = Trace of Precipitation, MM = Missing Value Source: NWS Daily Summary

Daily Weather History Graph

Daily Weather History Graph

Search for Another Location

Airport:

Trip Planner

Search our weather history database for the weather conditions in past years. The results will help you decide how hot, cold, wet, or windy it might be!

Date:

Astronomy

Jun. 26, 2013 Rise Set
Actual Time 6:10 AM CDT 8:21 PM CDT
Civil Twilight 5:42 AM CDT 8:49 PM CDT
Nautical Twilight 5:08 AM CDT 9:23 PM CDT
Astronomical Twilight 4:31 AM CDT 10:00 PM CDT
Moon 11:02 PM CDT (6/26) 9:48 AM CDT (6/26)
Length of Visible Light 15h 07m
Length of Day
14h 11m
Waning Gibbous, 85% of the Moon is Illuminated
Jun 26
Waning Gibbous
Jun 29
Last Quarter
Jul 8
New
Jul 15
First Quarter
Jul 22
Full

Hourly Weather History & Observations

Time (CDT) Temp. Heat Index Dew Point Humidity Pressure Visibility Wind Dir Wind Speed Gust Speed Precip Events Conditions
12:56 AM 77.0 °F - 73.9 °F 90% 29.96 in 10.0 mi Calm Calm - N/A   Clear
1:56 AM 75.9 °F - 73.9 °F 94% 29.96 in 10.0 mi South 3.5 mph - N/A   Clear
2:56 AM 75.0 °F - 73.9 °F 96% 29.96 in 10.0 mi Calm Calm - N/A   Clear
3:56 AM 75.0 °F - 73.9 °F 96% 29.96 in 8.0 mi Calm Calm - N/A   Scattered Clouds
4:56 AM 75.0 °F - 73.0 °F 94% 29.96 in 6.0 mi Calm Calm - 0.01 in   Scattered Clouds
5:10 AM 73.4 °F - 73.4 °F 100% 29.97 in 5.0 mi Calm Calm - N/A   Mostly Cloudy
5:18 AM 73.4 °F - 73.4 °F 100% 29.97 in 5.0 mi Calm Calm - N/A   Mostly Cloudy
5:38 AM 73.4 °F - 73.4 °F 100% 29.97 in 5.0 mi Calm Calm - N/A   Mostly Cloudy
5:52 AM 73.4 °F - 73.4 °F 100% 29.98 in 5.0 mi Calm Calm - N/A   Scattered Clouds
5:56 AM 73.9 °F - 73.0 °F 97% 29.97 in 5.0 mi Calm Calm - N/A   Partly Cloudy
6:56 AM 75.0 °F - 73.9 °F 96% 29.99 in 4.0 mi Calm Calm - N/A   Clear
7:56 AM 78.1 °F - 75.0 °F 90% 30.01 in 10.0 mi Calm Calm - N/A   Partly Cloudy
8:56 AM 82.0 °F 89.4 °F 75.9 °F 82% 30.02 in 10.0 mi Variable 4.6 mph - N/A   Scattered Clouds
9:06 AM 82.4 °F 89.5 °F 75.2 °F 79% 30.03 in 9.0 mi SW 4.6 mph - N/A   Mostly Cloudy
9:56 AM 84.9 °F 93.3 °F 75.0 °F 72% 30.03 in 10.0 mi Variable 5.8 mph - N/A   Scattered Clouds
10:56 AM 87.1 °F 95.4 °F 73.9 °F 65% 30.03 in 10.0 mi Variable 6.9 mph - N/A   Mostly Cloudy
11:10 AM 87.8 °F 95.6 °F 73.4 °F 62% 30.04 in 10.0 mi West 6.9 mph - N/A   Mostly Cloudy
11:24 AM 86.0 °F 93.4 °F 73.4 °F 66% 30.04 in 10.0 mi WSW 5.8 mph - N/A   Mostly Cloudy
11:56 AM 87.1 °F 93.6 °F 72.0 °F 61% 30.02 in 10.0 mi Variable 4.6 mph - N/A   Mostly Cloudy
12:56 PM 91.0 °F 97.6 °F 71.1 °F 52% 30.01 in 10.0 mi Variable 5.8 mph - N/A   Partly Cloudy
1:56 PM 91.9 °F 99.5 °F 72.0 °F 52% 29.99 in 10.0 mi Variable 3.5 mph - N/A   Partly Cloudy
2:56 PM 91.9 °F 96.9 °F 69.1 °F 47% 29.96 in 10.0 mi Variable 4.6 mph - N/A   Partly Cloudy
3:56 PM 93.0 °F 100.1 °F 71.1 °F 49% 29.95 in 10.0 mi Variable 4.6 mph - N/A   Partly Cloudy
4:56 PM 93.9 °F 100.8 °F 71.1 °F 47% 29.94 in 10.0 mi Variable 5.8 mph - N/A   Mostly Cloudy
5:56 PM 91.9 °F 100.7 °F 73.0 °F 54% 29.93 in 10.0 mi Variable 3.5 mph - N/A   Mostly Cloudy
6:56 PM 91.0 °F 100.4 °F 73.9 °F 57% 29.92 in 10.0 mi Variable 4.6 mph - N/A   Clear
7:56 PM 87.1 °F 96.3 °F 75.0 °F 67% 29.92 in 10.0 mi Calm Calm - N/A   Partly Cloudy
8:56 PM 82.9 °F 90.8 °F 75.9 °F 79% 29.93 in 10.0 mi Calm Calm - N/A   Clear
9:56 PM 82.0 °F 88.6 °F 75.0 °F 79% 29.94 in 10.0 mi Variable 3.5 mph - N/A   Clear
10:56 PM 80.1 °F 85.1 °F 75.0 °F 85% 29.96 in 10.0 mi Calm Calm - N/A   Clear
11:56 PM 79.0 °F - 73.9 °F 84% 29.97 in 10.0 mi Variable 3.5 mph - N/A   Clear